(192956) = 2000 CF8

Discovered at Socorro on 2000-02-02 by LINEAR.

Orbit

Orbit type: Main Belt

Note: WebGL enabled browser required.

epoch2024-03-31.0
epoch JD2460400.5
perihelion date2023-04-12.91211
perihelion JD2460047.41211
argument of perihelion (°)327.09910
ascending node (°)135.77809
inclination (°)8.61302
eccentricity0.1865288
perihelion distance (AU)2.2729709
Tisserand w.r.t. Jupiter3.3
ΔV w.r.t. Earth (km/sec)9.8
semimajor axis (AU)2.7941628
mean anomaly (°)74.50910
mean daily motion (°/day)0.21102140
aphelion distance (AU)3.315
period (years)4.67
P-vector [x]-0.22713443
P-vector [y]0.92273788
P-vector [z]0.31139165
Q-vector [x]-0.96824608
Q-vector [y]-0.24826265
Q-vector [z]0.02941418
absolute magnitude15.97
phase slope0.15
uncertainty0
referenceE2024-GJ9
observations used637
oppositions15
arc length (days)8864
first opposition used2000
last opposition used2024
residual rms (arc-secs)0.69
perturbers coarse indicatorM-v
perturbers precise indicator003Ek
first observation date used2000-01-05.0
last observation date used2024-04-12.0
computer nameMPCLINUX
JD of orbit computation2456819.666577
perihelion JD uncertainty (days)9.4076E-05
argument of perihelion uncertainty (°)4.4453E-05
ascending node uncertainty (°)3.6044E-05
inclination uncertainty (°)7.7632E-06
eccentricity uncertainty 6.4898E-08
perihelion distance uncertainty (AU)1.8518E-07
Minimum Orbit Intersection Distances (in AU)
for orbit epoch: 2460400.5, reference: E2024-GJ9
Mercury1.96393
Venus1.55997
Earth1.29557
Mars0.66737
Jupiter1.84455
Saturn6.68783
Uranus15.8089
Neptune26.9256

Observations

631 total observations over interval: 2000 01 05.31115 – 2024 03 20.284758
These data are available for download (format description).

Date (UT) J2000 RA J2000 Dec Magn Location Ref
2000 01 05.31115 07 45 37.84 +14 38 10.9 19.0   704 – Lincoln Laboratory ETS, New Mexico MPS 34179
2000 01 05.32573 07 45 37.08 +14 38 17.1 18.9   704 – Lincoln Laboratory ETS, New Mexico MPS 34179
2000 01 05.34030 07 45 36.31 +14 38 22.3 19.0   704 – Lincoln Laboratory ETS, New Mexico MPS 34179
2000 01 05.35488 07 45 35.49 +14 38 28.7 19.5   704 – Lincoln Laboratory ETS, New Mexico MPS 34179
2000 02 02.24660 07 22 32.14 +17 48 25.7 19.0   704 – Lincoln Laboratory ETS, New Mexico MPS 10319
2000 02 02.26100 07 22 31.57 +17 48 32.2 19.2   704 – Lincoln Laboratory ETS, New Mexico MPS 10319
2000 02 02.27544 07 22 30.98 +17 48 37.7 18.9   704 – Lincoln Laboratory ETS, New Mexico MPS 10319
2000 02 02.28984 07 22 30.39 +17 48 44.0 19.5   704 – Lincoln Laboratory ETS, New Mexico MPS 10319
2000 02 02.30462 07 22 29.78 +17 48 49.1 19.5   704 – Lincoln Laboratory ETS, New Mexico MPS 10319
2000 02 03.16613 07 21 57.29 +17 54 39.2 18.7   704 – Lincoln Laboratory ETS, New Mexico MPS 10319
2000 02 03.18044 07 21 56.70 +17 54 46.1 18.9   704 – Lincoln Laboratory ETS, New Mexico MPS 10319
2000 02 03.19482 07 21 56.16 +17 54 51.9 19.1   704 – Lincoln Laboratory ETS, New Mexico MPS 10319
2000 02 03.20913 07 21 55.58 +17 54 57.0 18.7   704 – Lincoln Laboratory ETS, New Mexico MPS 10319
2000 02 03.22340 07 21 54.99 +17 55 04.0 18.9   704 – Lincoln Laboratory ETS, New Mexico MPS 10319
2000 03 04.17744 07 16 44.92 +20 39 57.8 19.3   704 – Lincoln Laboratory ETS, New Mexico MPS 34179
2000 03 04.19097 07 16 45.03 +20 40 00.8 19.2   704 – Lincoln Laboratory ETS, New Mexico MPS 34179
2000 03 04.20441 07 16 45.35 +20 40 04.0 19.4   704 – Lincoln Laboratory ETS, New Mexico MPS 34179
2000 03 04.21784 07 16 45.63 +20 40 08.0 18.7   704 – Lincoln Laboratory ETS, New Mexico MPS 34179
2000 03 04.23129 07 16 45.79 +20 40 11.1 19.6   704 – Lincoln Laboratory ETS, New Mexico MPS 34179
2005 02 03.36978 11 23 38.31 +08 45 44.3 19.2   704 – Lincoln Laboratory ETS, New Mexico MPS 126312
2005 02 03.38257 11 23 37.98 +08 45 50.9 19.3   704 – Lincoln Laboratory ETS, New Mexico MPS 126312
2005 02 03.39540 11 23 37.67 +08 45 56.3 19.5   704 – Lincoln Laboratory ETS, New Mexico MPS 126312
2005 02 03.40824 11 23 37.46 +08 46 02.5 19.4   704 – Lincoln Laboratory ETS, New Mexico MPS 126312
2005 02 03.42168 11 23 37.07 +08 46 07.9 18.9   704 – Lincoln Laboratory ETS, New Mexico MPS 126312
2005 02 09.47608 11 20 58.34 +09 34 32.7 19.1   704 – Lincoln Laboratory ETS, New Mexico MPS 126312
2005 02 09.48923 11 20 57.92 +09 34 40.2 19.6   704 – Lincoln Laboratory ETS, New Mexico MPS 126312
2005 02 09.50169 11 20 57.54 +09 34 45.4 19.8   704 – Lincoln Laboratory ETS, New Mexico MPS 126312
2005 02 09.51412 11 20 57.13 +09 34 52.0 19.6   704 – Lincoln Laboratory ETS, New Mexico MPS 126312
2005 02 14.35710 11 18 14.26 +10 16 38.3 19.1   704 – Lincoln Laboratory ETS, New Mexico MPS 126693
2005 02 14.36956 11 18 13.79 +10 16 44.8 19.4   704 – Lincoln Laboratory ETS, New Mexico MPS 126693
2005 02 14.38198 11 18 13.35 +10 16 51.3 19.2   704 – Lincoln Laboratory ETS, New Mexico MPS 126693
2005 02 14.39504 11 18 12.80 +10 16 58.0 20.1   704 – Lincoln Laboratory ETS, New Mexico MPS 126693
2005 02 14.40749 11 18 12.34 +10 17 05.4 19.6   704 – Lincoln Laboratory ETS, New Mexico MPS 126693
2005 03 02.33499 11 06 44.63 +12 39 48.9 19.0 R 703 – Catalina Sky Survey MPS 127088
2005 03 02.34355 11 06 44.22 +12 39 52.3 18.1 R 703 – Catalina Sky Survey MPS 127088
2005 03 02.35208 11 06 43.78 +12 39 57.6 19.1 R 703 – Catalina Sky Survey MPS 127088
2005 03 02.36059 11 06 43.33 +12 40 02.0 18.1 R 703 – Catalina Sky Survey MPS 127088
2005 03 04.35706 11 05 09.15 +12 57 11.3 18.9   704 – Lincoln Laboratory ETS, New Mexico MPS 127753
2005 03 04.36849 11 05 08.60 +12 57 17.1 19.3   704 – Lincoln Laboratory ETS, New Mexico MPS 127753
2005 03 04.37992 11 05 08.09 +12 57 22.1 19.5   704 – Lincoln Laboratory ETS, New Mexico MPS 127753
2005 03 04.39251 11 05 07.39 +12 57 30.1 19.1   704 – Lincoln Laboratory ETS, New Mexico MPS 127753
2005 03 04.40429 11 05 06.79 +12 57 35.2 19.1   704 – Lincoln Laboratory ETS, New Mexico MPS 127753
2005 03 08.16565 11 02 09.98 +13 28 44.2 18.6 R 699 – Lowell Observatory-LONEOS MPS 127753
2005 03 08.18512 11 02 09.12 +13 28 52.5   699 – Lowell Observatory-LONEOS MPS 127753
2005 03 08.20459 11 02 08.13 +13 29 01.5   699 – Lowell Observatory-LONEOS MPS 127753
2005 03 08.22403 11 02 07.30 +13 29 10.6   699 – Lowell Observatory-LONEOS MPS 127753
2005 03 09.28784 11 01 17.51 +13 37 40.6 18.9   704 – Lincoln Laboratory ETS, New Mexico MPS 127753
2005 03 09.30009 11 01 16.92 +13 37 45.9 19.3   704 – Lincoln Laboratory ETS, New Mexico MPS 127753
2005 03 09.31304 11 01 16.33 +13 37 52.1 19.1   704 – Lincoln Laboratory ETS, New Mexico MPS 127753
2005 03 09.32523 11 01 15.71 +13 37 58.2 19.2   704 – Lincoln Laboratory ETS, New Mexico MPS 127753
2005 03 09.33762 11 01 15.17 +13 38 03.4 19.2   704 – Lincoln Laboratory ETS, New Mexico MPS 127753
2005 03 12.27904 10 59 00.50 +14 00 33.3 19.0   704 – Lincoln Laboratory ETS, New Mexico MPS 128894
2005 03 12.29046 10 58 59.95 +14 00 38.2 19.4   704 – Lincoln Laboratory ETS, New Mexico MPS 128894
2005 03 12.30187 10 58 59.40 +14 00 41.8 19.5   704 – Lincoln Laboratory ETS, New Mexico MPS 128894
2005 03 12.31332 10 58 58.84 +14 00 48.4 19.4   704 – Lincoln Laboratory ETS, New Mexico MPS 128894
2005 03 12.32470 10 58 58.31 +14 00 53.4 19.1   704 – Lincoln Laboratory ETS, New Mexico MPS 128894
2005 03 16.24440 10 56 07.00 +14 28 33.4 19.8   704 – Lincoln Laboratory ETS, New Mexico MPS 128894
2005 03 16.25704 10 56 06.39 +14 28 38.8 19.2   704 – Lincoln Laboratory ETS, New Mexico MPS 128894
2005 03 16.26826 10 56 05.74 +14 28 43.5 19.1   704 – Lincoln Laboratory ETS, New Mexico MPS 128894
2005 03 16.27968 10 56 05.33 +14 28 46.9 19.6   704 – Lincoln Laboratory ETS, New Mexico MPS 128894
2005 04 02.27593 10 46 38.01 +15 52 29.3 20.0 R 703 – Catalina Sky Survey MPS 130145
2005 04 02.28395 10 46 37.75 +15 52 30.7 20.0 R 703 – Catalina Sky Survey MPS 130145
2005 04 02.29200 10 46 37.62 +15 52 32.2 19.2 R 703 – Catalina Sky Survey MPS 130145
2005 04 02.30005 10 46 37.43 +15 52 33.3 19.2 R 703 – Catalina Sky Survey MPS 130145
2007 09 10.22237 21 05 36.49 -18 20 55.0 20.4 V G96 – Mt. Lemmon Survey MPS 215965
2007 09 10.22795 21 05 36.31 -18 20 56.2 20.3 V G96 – Mt. Lemmon Survey MPS 215965
2007 09 10.23344 21 05 36.16 -18 20 57.7 20.3 V G96 – Mt. Lemmon Survey MPS 215965
2007 09 10.23899 21 05 35.95 -18 20 59.2 20.2 V G96 – Mt. Lemmon Survey MPS 215965
2008 09 29.44096 04 19 29.17 +09 20 10.3 19.2 V 703 – Catalina Sky Survey MPS 257728
2008 09 29.45178 04 19 29.31 +09 20 08.7 19.8 V 703 – Catalina Sky Survey MPS 257728
2008 09 29.46271 04 19 29.53 +09 20 06.3 19.4 V 703 – Catalina Sky Survey MPS 257728
2008 09 29.47370 04 19 29.71 +09 20 03.4 19.7 V 703 – Catalina Sky Survey MPS 257728
2008 10 24.43458 04 18 39.38 +07 34 05.2 19.4 V 703 – Catalina Sky Survey MPS 261249
2008 10 24.44454 04 18 39.13 +07 34 02.7 19.2 V 703 – Catalina Sky Survey MPS 261249
2008 10 24.45443 04 18 38.80 +07 33 59.7 18.8 V 703 – Catalina Sky Survey MPS 261249
2008 10 24.46442 04 18 38.55 +07 33 56.2 19.1 V 703 – Catalina Sky Survey MPS 261249
2008 10 29.26136 04 16 26.34 +07 12 39.3 19.5   704 – Lincoln Laboratory ETS, New Mexico MPS 261249
2008 10 29.27301 04 16 26.01 +07 12 36.5 19.9   704 – Lincoln Laboratory ETS, New Mexico MPS 261249
2008 10 29.28458 04 16 25.56 +07 12 34.6 19.9   704 – Lincoln Laboratory ETS, New Mexico MPS 261249
2008 10 29.29659 04 16 25.10 +07 12 31.6 19.8   704 – Lincoln Laboratory ETS, New Mexico MPS 261249
2008 11 19.31432 04 00 49.39 +05 58 16.4 18.3 V 703 – Catalina Sky Survey MPS 266268
2008 11 19.32385 04 00 48.92 +05 58 14.7 18.6 V 703 – Catalina Sky Survey MPS 266268
2008 11 19.33349 04 00 48.34 +05 58 12.1 19.3 V 703 – Catalina Sky Survey MPS 266268
2008 11 19.34307 04 00 47.84 +05 58 12.1 19.2 V 703 – Catalina Sky Survey MPS 266268
2008 12 01.32607 03 50 04.56 +05 42 29.8 18.5 V 703 – Catalina Sky Survey MPS 268699
2008 12 01.33398 03 50 04.09 +05 42 29.8 18.7 V 703 – Catalina Sky Survey MPS 268699
2008 12 01.34962 03 50 03.22 +05 42 29.4 18.5 V 703 – Catalina Sky Survey MPS 268699
